Weather History for Little Rock AFB, AR

Change the Weather History Date:

Tuesday, December 24, 2013

  Actual Average Record
Temperature  
Mean Temperature 30 °F -  
Max Temperature 36 °F 49 °F 75 °F (1982)
Min Temperature 23 °F 30 °F -3 °F (1989)
Degree Days  
Heating Degree Days 36    
Moisture  
Dew Point 21 °F    
Average Humidity 72    
Maximum Humidity 92    
Minimum Humidity 53    
Precipitation  
Precipitation 0.00 in - - ()
Sea Level Pressure  
Sea Level Pressure 30.54 in    
Wind  
Wind Speed 5 mph (NE)    
Max Wind Speed 13 mph    
Max Gust Speed -    
Visibility 10 miles    
Events      
Averages and records for this station are not official NWS values.
T = Trace of Precipitation, MM = Missing Value Source: NWS Daily Summary

Daily Weather History Graph

Daily Weather History Graph

Search for Another Location

Airport:

Trip Planner

Search our weather history database for the weather conditions in past years. The results will help you decide how hot, cold, wet, or windy it might be!

Date:

Astronomy

Dec. 24, 2013 Rise Set
Actual Time 7:13 AM CST 5:02 PM CST
Civil Twilight 6:45 AM CST 5:30 PM CST
Nautical Twilight 6:14 AM CST 6:02 PM CST
Astronomical Twilight 5:43 AM CST 6:33 PM CST
Moon 11:55 PM CST (12/24) 11:23 AM CST (12/24)
Length of Visible Light 10h 45m
Length of Day
9h 48m
Waning Gibbous, 58% of the Moon is Illuminated
Dec 24
Waning Gibbous
Dec 25
Last Quarter
Jan 1
New
Jan 7
First Quarter
Jan 15
Full

Hourly Weather History & Observations

Time (CST) Temp. Windchill Dew Point Humidity Pressure Visibility Wind Dir Wind Speed Gust Speed Precip Events Conditions
12:58 AM 30.4 °F 25.6 °F 23.2 °F 75% 30.57 in 10.0 mi North 4.6 mph - N/A   Clear
1:58 AM 28.8 °F 23.7 °F 21.6 °F 74% 30.58 in 10.0 mi NNW 4.6 mph - N/A   Clear
2:58 AM 27.7 °F - 20.8 °F 75% 30.58 in 10.0 mi Calm Calm - N/A   Clear
3:58 AM 25.0 °F 19.3 °F 20.8 °F 84% 30.59 in 10.0 mi North 4.6 mph - N/A   Clear
4:58 AM 25.2 °F - 19.6 °F 79% 30.58 in 10.0 mi North 2.3 mph - N/A   Clear
5:58 AM 23.9 °F - 19.2 °F 82% 30.61 in 10.0 mi NW 2.3 mph - N/A   Clear
6:58 AM 23.4 °F 17.4 °F 19.4 °F 85% 30.61 in 10.0 mi NNE 4.6 mph - N/A   Clear
7:58 AM 24.1 °F 15.2 °F 19.0 °F 81% 30.62 in 10.0 mi NNE 8.1 mph - N/A   Clear
8:58 AM 25.2 °F 13.9 °F 16.3 °F 69% 30.63 in 10.0 mi NE 12.7 mph - N/A   Clear
9:58 AM 27.0 °F 18.0 °F 16.3 °F 64% 30.65 in 10.0 mi ENE 9.2 mph - N/A   Clear
10:58 AM 28.9 °F 21.1 °F 15.6 °F 58% 30.64 in 10.0 mi NE 8.1 mph - N/A   Clear
11:58 AM 31.3 °F 24.7 °F 17.2 °F 56% 30.61 in 10.0 mi East 6.9 mph - N/A   Clear
12:58 PM 34.0 °F 29.8 °F 19.0 °F 54% 30.56 in 10.0 mi Variable 4.6 mph - N/A   Clear
1:58 PM 35.6 °F - 20.3 °F 54% 30.52 in 10.0 mi Variable 2.3 mph - N/A   Clear
2:58 PM 36.3 °F 31.6 °F 20.7 °F 53% 30.51 in 10.0 mi ESE 5.8 mph - N/A   Clear
3:58 PM 36.0 °F 29.6 °F 20.8 °F 54% 30.49 in 10.0 mi ESE 8.1 mph - N/A   Clear
4:58 PM 34.0 °F 29.8 °F 22.3 °F 62% 30.48 in 10.0 mi SSE 4.6 mph - N/A   Clear
5:58 PM 31.1 °F 27.7 °F 22.8 °F 71% 30.47 in 10.0 mi East 3.5 mph - N/A   Clear
6:58 PM 28.8 °F 25.0 °F 23.4 °F 80% 30.46 in 10.0 mi East 3.5 mph - N/A   Clear
7:58 PM 28.4 °F 23.3 °F 23.0 °F 80% 30.44 in 10.0 mi East 4.6 mph - N/A   Clear
8:58 PM 28.6 °F - 23.5 °F 81% 30.44 in 10.0 mi East 2.3 mph - N/A   Clear
9:58 PM 27.7 °F - 23.5 °F 84% 30.43 in 10.0 mi ENE 2.3 mph - N/A   Clear
10:58 PM 25.2 °F - 22.6 °F 90% 30.44 in 10.0 mi Calm Calm - N/A   Clear
11:58 PM 24.4 °F - 22.5 °F 92% 30.42 in 10.0 mi Calm Calm - N/A   Clear